Powrót do katalogu

STARLINK-30260

AktywnyŁącznośćVLEO
NORAD 57524·PAYLOAD·🇺🇸 United States

Wystrzelony Aug 8, 2023 z Vandenberg Space Force Base

Loading…

Następne Przeloty (najbliższe 24 godziny)

TLE

ŚwieżeSource: CelesTrak SupGP

Epoka: Sep 14, 2026, 21:07 UTC

1 57524C 23115D   26257.88034722 -.00008376  00000+0 -30325-3 0  2579
2 57524  43.0016  13.1598 0001501 272.3057 159.9226 15.27597447    15

Śledź STARLINK-30260 w czasie rzeczywistym z AllMySat

Download on the App Store